Location: Brantley
(31.5822°N, 86.2569°W)
Time: 22:57:58
(UTC+00:00)

A-11 Canister half - Pass Details

Date: 20 February 2026
Orbit: 1525 x 1683 km, 47.3° (Epoch: 10 March)

Event Time Altitude Azimuth Distance (km) Brightness Sun altitude
Rises 02:47:20 0° 308° (NW) 4,675 12.3 -41.3°
Reaches altitude 10° 02:50:33 10° 314° (NW) 3,691 11.5 -42.0°
Enters shadow 02:56:39 39° 344° (NNW) 2,152 9.8 -43.3°
